NAVSTAR 58 (USA 190) 1 29486U 06042A 21111.34670836 -.00000006 00000-0 00000-0 0 9991 2 29486 54.7828 226.0818 0098821 13.5748 351.9623 2.00551829106668 DELTA 2 DEB 1 38674U 06042D 21109.38210564 .00010665 00000-0 31882-3 0 9995 2 38674 39.9276 132.3728 4421898 294.8897 25.9678 6.73439382242421